North Adams, MA

8:54 AM EDT on May 27, 2018 (GMT -0400)
Harriman And West

Weather History for KAQW - April, 2013

Change the Weather History Date:

Saturday, April 13, 2013

  Actual Average Record
Temperature  
Mean Temperature 42 °F -  
Max Temperature 51 °F 55 °F 75 °F (2014)
Min Temperature 33 °F 32 °F 27 °F (1998)
Degree Days  
Heating Degree Days 24    
Moisture  
Dew Point 30 °F    
Average Humidity 70    
Maximum Humidity 89    
Minimum Humidity 46    
Precipitation  
Precipitation 0.02 in - - ()
Sea Level Pressure  
Sea Level Pressure 29.86 in    
Wind  
Wind Speed 5 mph (WSW)    
Max Wind Speed 12 mph    
Max Gust Speed 20 mph    
Visibility 10 miles    
Events      
Averages and records for this station are not official NWS values.
T = Trace of Precipitation, MM = Missing Value Source: NWS Daily Summary

Daily Weather History Graph

Daily Weather History Graph

Search for Another Location

Airport or City:

Astronomy

Apr. 13, 2013 Rise Set
Actual Time 6:14 AM EDT 7:32 PM EDT
Civil Twilight 5:45 AM EDT 8:02 PM EDT
Nautical Twilight 5:09 AM EDT 8:37 PM EDT
Astronomical Twilight 4:32 AM EDT 9:14 PM EDT
Moon 8:00 AM EDT (4/13) 10:58 PM EDT (4/13)
Length of Visible Light 14h 17m
Length of Day
13h 18m
Waxing Crescent, 10% of the Moon is Illuminated
Apr 13
Waxing Crescent
Apr 18
First Quarter
Apr 25
Full
May 2
Last Quarter
May 9
New

Hourly Weather History & Observations

Time (EDT) Temp. Windchill Dew Point Humidity Pressure Visibility Wind Dir Wind Speed Gust Speed Precip Events Conditions
12:20 AM 35.6 °F 27.5 °F 26.6 °F 70% 29.82 in 10.0 mi ESE 11.5 mph - N/A   Overcast
12:52 AM 36.0 °F 29.0 °F 27.0 °F 70% 29.87 in 10.0 mi ESE 9.2 mph - 0.00 in   Overcast
12:59 AM 35.6 °F 28.6 °F 26.6 °F 70% 29.83 in 10.0 mi East 9.2 mph - 0.00 in   Overcast
1:38 AM 35.6 °F 27.5 °F 28.4 °F 75% 29.79 in 10.0 mi ESE 11.5 mph - 0.02 in   Overcast
1:52 AM 35.1 °F 31.0 °F 28.0 °F 76% 29.84 in 10.0 mi ESE 4.6 mph - 0.02 in   Overcast
2:01 AM 35.6 °F 30.7 °F 28.4 °F 75% 29.82 in 10.0 mi ESE 5.8 mph - N/A   Overcast
2:52 AM 35.1 °F - 28.9 °F 78% 29.83 in 10.0 mi Calm Calm - N/A   Overcast
3:52 AM 35.1 °F - 30.0 °F 82% 29.83 in 10.0 mi Calm Calm - N/A   Overcast
4:34 AM 33.8 °F - 30.2 °F 87% 29.80 in 10.0 mi Calm Calm - N/A   Overcast
4:52 AM 34.0 °F - 30.0 °F 85% 29.83 in 10.0 mi Calm Calm - N/A   Overcast
5:10 AM 33.8 °F - 30.2 °F 87% 29.81 in 10.0 mi Calm Calm - N/A   Overcast
5:50 AM 33.8 °F - 30.2 °F 87% 29.82 in 10.0 mi Calm Calm - N/A   Overcast
5:52 AM 34.0 °F - 30.0 °F 85% 29.84 in 10.0 mi Calm Calm - N/A   Overcast
6:52 AM 34.0 °F - 30.9 °F 89% 29.84 in 10.0 mi Calm Calm - N/A   Unknown
7:52 AM 35.1 °F - 30.9 °F 85% 29.86 in 10.0 mi Calm Calm - N/A   Overcast
8:52 AM 37.0 °F - 30.9 °F 79% 29.85 in 10.0 mi Calm Calm - N/A   Overcast
9:52 AM 39.0 °F 36.8 °F 32.0 °F 76% 29.85 in 10.0 mi WNW 3.5 mph - N/A   Overcast
10:52 AM 44.1 °F 41.5 °F 32.0 °F 63% 29.86 in 10.0 mi West 4.6 mph - N/A   Overcast
11:41 AM 44.6 °F 39.2 °F 30.2 °F 57% 29.85 in 10.0 mi WNW 10.4 mph 17.3 mph N/A   Overcast
11:52 AM 45.0 °F 41.2 °F 30.9 °F 58% 29.87 in 10.0 mi West 6.9 mph - N/A   Overcast
12:52 PM 48.0 °F - 30.9 °F 52% 29.84 in 10.0 mi Variable 5.8 mph - N/A   Overcast
1:52 PM 50.0 °F - 30.0 °F 46% 29.83 in 10.0 mi West 11.5 mph 16.1 mph N/A   Overcast
2:52 PM 48.9 °F - 30.0 °F 48% 29.83 in 10.0 mi West 6.9 mph - N/A   Overcast
4:52 PM 48.9 °F - 30.0 °F 48% 29.84 in 10.0 mi West 5.8 mph - N/A   Overcast
5:52 PM 48.0 °F - 30.0 °F 50% 29.86 in 10.0 mi Calm Calm - N/A   Overcast
6:52 PM 46.9 °F - 34.0 °F 61% 29.88 in 10.0 mi Calm Calm - N/A   Overcast
7:52 PM 45.0 °F - 34.0 °F 65% 29.89 in 10.0 mi Calm Calm - N/A   Overcast
8:52 PM 42.1 °F 38.4 °F 33.1 °F 70% 29.95 in 10.0 mi WNW 5.8 mph 19.6 mph 0.00 in   Overcast
9:17 PM 42.8 °F 41.1 °F 32.0 °F 66% 29.94 in 10.0 mi SW 3.5 mph - N/A   Overcast
9:52 PM 42.1 °F - 30.9 °F 65% 29.96 in 10.0 mi Calm Calm - N/A   Overcast
10:52 PM 41.0 °F - 32.0 °F 70% 29.94 in 10.0 mi Calm Calm - N/A   Overcast
11:52 PM 39.0 °F - 32.0 °F 76% 29.94 in - Calm Calm - N/A   Unknown